COSMOS 1375 DEB

Satellite information

Favourite Embed

Satellite Type and Status

DEBRISIN ORBIT

Key statistics

Satellite COSMOS 1375 DEB at a glance.

Uptime

15897

Days in orbit

Revolutions

≈ 13.8

Per day

Orbit

LEO

Low Earth Orbit

Inclination

65.8

Latest

Satellite identification and parameters

Extended collection of information and parameters for COSMOS 1375 DEB.

Object identification

Identified? True

Debris? True

Object name: COSMOS 1375 DEB

International designator: 1982-055AV

Object number (NORAD): 17803

Object ID (CCSDS): 17803

Country: COMMONWEALTH OF INDEPENDENT STATES (CIS)

Current information (Y/N): Y

RCS size: SMALL

Orbital parameters

Period: 104.288 minutes

Inclination: 65.8331 deg

SMA: 7339.214 km

Apoapsis: 997.591 km

Periapsis: 924.567 km

RAAN: 332.8604 deg

Eccentricy: 0.0049749

Argument of periapsis: 309.2732 deg

Mean anomaly: 111.639 deg

Mean motion: 13.80792495 rev/day

Mean motion (dot): 0.00000361 rev/day2

B* drag term: 0.00041613621 1/REarth

Two-line elements (TLE)

Creation date: Dec. 13, 2025, 5:47 p.m.

Reference frame: TEME

Reference center: EARTH

Epoch: Dec. 13, 2025, 1:32 a.m. UTC

TLE line 0: 0 COSMOS 1375 DEB

TLE line 1: 1 17803U 82055AV 25347.06451201 .00000361 00000-0 41614-3 0 9998

TLE line 2: 2 17803 65.8331 332.8604 0049749 309.2732 111.6390 13.80792495 18190

Live tracking on map

Real-time ground track for satellite COSMOS 1375 DEB.

In-orbit conjunctions

A list of the most updated potential collisions computed for object COSMOS 1375 DEB.

Target Orbit TCA Probability of collision Miss distance Type
CZ-4C R/B LEO 2025-01-24 17:32:59 0.0001623122 983.0 (m) ROCKET BODY

Associated space launch

ASAT target satellite

COSMOS 1375 DEB was lifted into orbit during the mission ‘Kosmos-3M | DS-P1-M 16’, on board a Kosmos-3M space rocket.

The launch took place on June 6, 1982, 5:10 p.m. from 132/2.

For more information about the launch, click the button.

Launch to space Kosmos-3M | DS-P1-M 16
Kosmos-3M | DS-P1-M 16

Agency: N/A

Status: Launch Successful

Launch date: June 6, 1982, 5:10 p.m. UTC

Rocket: Kosmos-3M

Launch pad: 132/2

Location: Plesetsk Cosmodrome, Russian Federation

...

Latest news about this satellite

There are no fresh news available about this satellite. Check back as we update our databases every day.


Newsletter sign-up

Weekly statistics, charts and insights to help you stay on top of the space industry.